Погода в Доваторовке

Россия / Калининградская область     54°39′09″N   21°44′10″E
темп.,
°C
ветер,
м/с
пор.,
м/с
влажн.,
%
обл.,
%
осадки,
мм/ч
давл.,
гПа
погр.,
м
24 января, пн
пн2423:00−2ю3693100 0.0 1033161
02:00−1ю4893100 0.0 1034238
05:00−3ю499421 0.0 1033191
08:00−2ююз5109499 0.0 1032284
11:000ююз51191100 0.0 1032376
14:00+1ююз61193100 0.1 1031400
17:00+1юз51196100 0.1 1029371
20:00+1юз51099100 0.2 1028312
25 января, вт
вт2523:00+2юз51299100 0.0 1027384
02:00+2зюз61296100 0.0 1025486
05:00+2зюз61395100 0.0 1023573
08:00+2з51197100 0.0 1021515
11:00+2зсз4999100 0.0 1021380
14:00+2сз37100100 0.1 1021227
17:00+1с389830 0.0 1023160
20:00−1с39906 0.0 1025201
26 января, ср
ср2623:00−2с26945 0.0 1026132
02:00−3ссз229378 0.0 102642
05:00−3сз11936 0.0 102612
08:00−3юз229161 0.0 102649
11:00−1юз3682100 0.0 1024230
14:00+1юз4108284 0.0 1022508
17:000ююз61298100 0.3 1018485
20:00+2зюз81597100 0.9 1015907
27 января, чт
чт2723:00+3з7149297 0.6 1013747
02:00+2зсз5119090 0.9 1013432
05:00+1з4992100 0.0 1013203
08:00+1зюз51295100 0.0 1011384
11:00+2юз61296100 0.0 1009669
14:00+2юз71497100 1.8 1005869
17:00+3зюз81697100 0.9 1002972
20:00+4з91685100 1.3 10001064
28 января, пт
пт2823:00+2зюз91997100 0.2 9981226
02:00+2зюз102096100 1.1 9961265
05:00+2з81597100 3.1 995962
08:00+1зсз61298100 4.9 997673
11:00+2ссз10168199 0.4 10021095
14:00+2сз10168098 0.4 10061202
17:00+1сз10168399 0.1 10101194
20:00+1ссз91583100 0.3 10131190